Overview Statistics Trail Chart Weather Telemetry Raw packets
 

This is the latest recevied weather packets stored in our database for station/object NR6G-12. If no packets are shown the sender has not sent any weather packets the latest 10 day(s).

<< 84 85 86 87 88 89 90 >>
Time Temp. Humidity Pressure Rain* Wind** Luminosity Snow
1787906952 20.56° C 55% 1019.3 hPa 0 mm - - -
1787906592 20° C 56% 1019.3 hPa 0 mm - - -
1787906232 20° C 58% 1019.3 hPa 0 mm - - -
1787905872 20° C 56% 1019.4 hPa 0 mm - - -
1787905512 20° C 56% 1019.4 hPa 0 mm - - -
1787905152 20° C 58% 1019.4 hPa 0 mm - - -
1787904792 20° C 57% 1019.4 hPa 0 mm - - -
1787904432 20.56° C 58% 1019.4 hPa 0 mm - - -
1787904072 20.56° C 54% 1019.5 hPa 0 mm - - -
1787903712 20.56° C 51% 1019.4 hPa 0 mm - - -
1787903352 21.11° C 53% 1019.4 hPa 0 mm - - -
1787902992 21.11° C 52% 1019.3 hPa 0 mm - - -
1787902632 21.11° C 51% 1019.2 hPa 0 mm - - -
1787902272 21.11° C 51% 1019.3 hPa 0 mm - - -
1787901912 21.11° C 53% 1019.2 hPa 0 mm - - -
1787901552 21.11° C 49% 1019.2 hPa 0 mm - - -
1787901192 21.11° C 50% 1019.3 hPa 0 mm - - -
1787900832 21.11° C 50% 1019.1 hPa 0 mm - - -
1787900472 21.11° C 50% 1019.2 hPa 0 mm - - -
1787900112 21.67° C 50% 1019.2 hPa 0 mm - - -
1787899752 21.67° C 49% 1019.3 hPa 0 mm - - -
1787899392 21.67° C 50% 1019.3 hPa 0 mm - - -
1787899033 21.11° C 50% 1019.1 hPa 0 mm - - -
1787898672 21.11° C 50% 1019.2 hPa 0 mm - - -
1787898312 21.11° C 50% 1020 hPa 0 mm - - -

* Rain latest hour (hover to see other rain measurements)
** Current wind speed in m/s (hover to see current wind gust speed)